User: anonymous   Login
Location: Weston
(26.1283°N, 80.4075°W)
Time: 07:03:29
(UTC-04:00)
Language:

H-2A R/B - Orbit

View from above orbital plane
View from above orbital plane
View from above satellite
View from above satellite

Ground track
Ground track

The orbit data is extracted from the following two-line orbital elements,

1 26899U 01038B   17144.04872805 +.00002750 +00000-0 +70592-3 0  9997
2 26899 028.2481 074.5423 7127246 172.8657 209.5806 02.47948749135914
Epoch (UTC): 24 May 2017 01:10:10
Eccentricity: 0.7127246
inclination: 28.2481°
perigee height: 246 km
apogee height: 33114 km
right ascension of ascending node: 74.5423°
argument of perigee: 172.8657°
revolutions per day: 2.47948749
mean anomaly at epoch: 209.5806°
orbit number at epoch: 13591

The dashed part of the orbit path shows where the satellite is in the earth's shadow,  

DLR